Flight Track Log - Related Links

Times and Time Zones

All times are in EDT time to prevent confusion due to time zone crossing. See the SWA595 flight status page for this flight to view local times or setup timezone preferences in your user account.

Time Position Orientation Groundspeed Altitude Reporting Facility
EDT Latitude Longitude Course Direction KTS MPH feet Rate Location/Type
Sat 08:09:07 AM 39.1728 -76.7189 251° West 185 213 1,700  Level Washington Center
Sat 08:10:07 AM 39.1533 -76.7908 251° West 254 292 4,600 2,380 Climbing Washington Center
Sat 08:11:08 AM 39.1206 -76.7394 129° Southeast 90 104 6,500 1,190 Climbing Washington Center
Sat 08:12:08 AM 39.1275 -76.6431 85° East 155 178 7,000 1,462 Climbing Washington Center
Sat 08:13:07 AM 39.1325 -76.5469 86° East 191 220 9,400 2,564 Climbing Washington Center
Sat 08:14:05 AM 39.1375 -76.4425 86° East 240 276 12,000 2,900 Climbing Washington Center
Sat 08:15:07 AM 39.1447 -76.3222 86° East 289 333 15,200 3,024 Climbing Washington Center
Sat 08:16:08 AM 39.1536 -76.1911 85° East 336 387 18,200 2,773 Climbing Washington Center
Sat 08:17:06 AM 39.1708 -76.0708 79° East 371 427 20,700 2,600 Climbing Washington Center
Sat 08:18:08 AM 39.1858 -75.9289 82° East 383 441 23,400 2,700 Climbing Washington Center
Sat 08:19:06 AM 39.2425 -75.8139 58° Northeast 382 440 26,100 2,300 Climbing Washington Center
Sat 08:20:08 AM 39.3239 -75.7122 44° Northeast 382 440 28,000 1,721 Climbing Washington Center
Sat 08:21:08 AM 39.4072 -75.6050 45° Northeast 396 456 29,600 1,815 Climbing Washington Center
Sat 08:22:07 AM 39.4906 -75.4947 46° Northeast 408 470 31,600 2,100 Climbing Washington Center
Sat 08:23:08 AM 39.5739 -75.3869 45° Northeast 421 484 33,800 1,723 Climbing Washington Center
Sat 08:25:15 AM 39.7533 -75.1372 47° Northeast 409 471 37,000 1,027 Climbing New York Center
Sat 08:26:15 AM 39.8325 -75.0231 48° Northeast 421 484 37,000  Level New York Center
Sat 08:27:15 AM 39.9117 -74.9142 47° Northeast 426 490 37,000  Level New York Center
Sat 08:28:15 AM 40.0203 -74.8447 26° Northeast 426 490 37,000  Level New York Center
Sat 08:29:15 AM 40.1319 -74.8078 14° North 403 464 37,000  Level New York Center
Sat 08:30:15 AM 40.2419 -74.7628 17° North 408 470 37,000  Level New York Center
Sat 08:31:15 AM 40.3517 -74.7228 16° North 408 470 37,000  Level New York Center
Sat 08:32:15 AM 40.4636 -74.6800 16° North 408 470 37,000  Level New York Center
Sat 08:33:15 AM 40.5753 -74.6428 14° North 408 470 37,000  Level New York Center
Sat 08:34:15 AM 40.6850 -74.5997 17° North 408 470 37,000  Level New York Center
Sat 08:35:15 AM 40.7969 -74.5539 17° North 408 470 37,000  Level New York Center
Sat 08:36:15 AM 40.9106 -74.5136 15° North 408 470 37,000  Level New York Center
Sat 08:37:15 AM 41.0181 -74.4728 16° North 408 470 37,000  Level New York Center
Sat 08:38:15 AM 41.1278 -74.4292 17° North 403 464 37,000  Level New York Center
Sat 08:40:03 AM 41.3192 -74.3583 16° North 406 467 37,000  Level Boston Center
Sat 08:41:03 AM 41.4261 -74.3200 15° North 400 460 37,000  Level Boston Center
Sat 08:42:01 AM 41.5100 -74.2864 17° North 394 453 37,000  Level Boston Center
Sat 08:43:02 AM 41.6294 -74.2425 15° North 399 459 37,000  Level Boston Center
Sat 08:44:03 AM 41.7364 -74.2039 15° North 399 459 37,000 -744 Level Boston Center
Sat 08:45:03 AM 41.8392 -74.1650 16° North 399 459 35,500 -1,700 Descending Boston Center
Sat 08:46:03 AM 41.9439 -74.1231 17° North 394 453 33,600 -1,361 Descending Boston Center
Sat 08:47:02 AM 42.0508 -74.0842 15° North 394 453 32,800 -857 Descending Boston Center
Sat 08:48:02 AM 42.1619 -74.0394 17° North 401 461 31,900 -942 Descending Boston Center
Sat 08:49:03 AM 42.2731 -73.9944 17° North 406 467 30,900 -992 Descending Boston Center
Sat 08:50:03 AM 42.3761 -73.9325 24° Northeast 406 467 29,900 -1,017 Descending Boston Center
Sat 08:51:01 AM 42.4197 -73.7789 69° East 385 443 28,900 -1,000 Descending Boston Center
Sat 08:52:03 AM 42.4589 -73.6247 71° East 396 456 27,900 -1,000 Descending Boston Center
Sat 08:53:01 AM 42.4978 -73.4708 71° East 415 478 26,900 -1,068 Descending Boston Center
Sat 08:54:01 AM 42.5367 -73.3081 72° East 426 490 25,800 -1,041 Descending Boston Center
Sat 08:55:02 AM 42.5753 -73.1675 70° East 427 491 24,800 -992 Descending Boston Center
Sat 08:56:02 AM 42.6156 -73.0269 69° East 409 471 23,800 -1,050 Descending Boston Center
Sat 08:57:02 AM 42.6497 -72.8833 72° East 402 463 22,700 -1,537 Descending Boston Center
Sat 08:58:03 AM 42.6833 -72.7367 73° East 402 463 20,700 -1,983 Descending Boston Center
Sat 08:59:03 AM 42.7211 -72.5983 70° East 389 448 18,700 -1,932 Descending Boston Center
Sat 09:00:01 AM 42.7525 -72.4711 71° East 366 421 16,900 -2,034 Descending Boston Center
Sat 09:01:01 AM 42.7839 -72.3439 71° East 355 409 14,700 -2,150 Descending Boston Center
Sat 09:02:01 AM 42.8003 -72.2136 80° East 348 400 12,600 -2,083 Descending Boston Center
Sat 09:03:02 AM 42.8103 -72.0864 84° East 338 389 10,500 -1,438 Descending Boston Center
Sat 09:04:02 AM 42.8078 -71.9675 92° East 320 368 9,700 -1,240 Descending Boston Center
Sat 09:05:03 AM 42.8011 -71.8572 95° East 301 346 8,000 -1,438 Descending Boston Center
Sat 09:06:03 AM 42.7922 -71.7525 97° East 285 328 6,800 -966 Descending Boston Center
Sat 09:07:01 AM 42.7853 -71.6564 96° East 264 304 6,100 -407 Descending Boston Center
Sat 09:08:01 AM 42.7575 -71.5719 114° Southeast 248 285 6,000 -645 Descending Boston Center
Sat 09:09:02 AM 42.7300 -71.5044 119° Southeast 216 249 4,800 -1,339 Descending Boston Center
Sat 09:10:02 AM 42.7356 -71.4367 84° East 190 219 3,300 -893 Descending Boston Center
Sat 09:11:03 AM 42.7581 -71.3656 67° East 190 219 3,000 -446 Descending Boston Center
Sat 09:12:03 AM 42.8017 -71.3706 355° North 160 184 2,400 -559 Descending Boston Center
Sat 09:13:01 AM 42.8478 -71.3867 346° North 160 184 1,900 -610 Descending Boston Center
Sat 09:14:01 AM 42.8833 -71.4058 338° Northwest 143 165 1,200 -744 Descending Boston Center
Sat 09:15:02 AM 42.9169 -71.4253 337° Northwest 136 157 400 -397 Descending Boston Center
Sat 09:16:02 AM 42.9464 -71.4444 335° Northwest 136 157 400  Level Boston Center

Login

Don't have an account? Register now (free) for customized features, flight alerts, and more!